FLOCK 4BE 28

导读

FLOCK 4BE 28是美国Planet公司(原行星实验室)研制的一颗3U立方体遥感卫星,属于FLOCK鸽群SuperDove星座的组成部分,于2024年8月16日发射升空。 该卫星运行于近地太阳同步轨道,配备多光谱成像载荷,可获取高分辨率地球观测影像,为农业、林业、灾害监测等领域提供持续的对地观测数据服务,补充Planet现有在轨遥感卫星星座的观测能力。截至2026年3月,卫星已在轨正常运行约19个月,仍在设计寿命周期内开展业务运行。

基本信息
目录编号:
60519
目录名称:
FLOCK 4BE 28
国际标识:
2024-149BD
轨道中心:
EARTH
卫星名称:
FLOCK 4BE 28
卫星全名:
FLOCK 4BE 28
卫星状态:
在轨 (已飞行756 天)
发射日期:
2024-08-16 UTC
国别 :
美国 (US)
星等 :
--
该卫星已列入 空间交会检测服务 Space Conjunction Data Service (SCDS) ,当前飞行风险评估等级: 无高风险
轨道信息
数据来源 国际轨道数据
星历时间: 2026-09-11T02:04:23+0800
15小时前
查看轨道信息
半长轴: 6795.57km
偏心率: 0.0003131
轨道倾角: 97.371°
近地点辐角 8.836°
升交点赤经 341.125°
平近点角 351.294°
近地点: 415.305km
远地点: 419.561km
周期: 92.918分钟
每日圈数: 15.497582
详细信息
使用方式:
暂无
2D轨道图
3D轨道图
轨道高度分析图
轨道倾角分析图
轨道综合分析图
查看轨道综合分析图
交会数据列表
事件ID 空间交会对象 最接近时刻(TCA) 交会距离 交会风险概率(CRP) 交会风险指数(CRI) 操作
CDM_260913-052203-076406-051921
2026-09-13T
05:22:06+0000
1.909 km
极远距离
2.033892E-6 低风险 0.41
与全量物体交会距离演化趋势
与全量物体交会风险概率演化趋势